星链-4104 (STARLINK-4104 )

导读 | 星芒AI

STARLINK-4104 是 SpaceX Starlink 项目中的一颗低轨通信卫星,属于该系列的第 4104 颗发射入轨的卫星。它运行在约 550 公里的轨道高度,旨在为全球用户提供高速互联网接入服务。该卫星采用先进的相控阵天线和激光通信技术,提高数据传输效率并减少延迟。作为 Starlink 网络的一部分,STARLINK-4104 有助于扩展覆盖范围,特别是在偏远和网络基础设施薄弱的地区,推动全球互联网普及。

基本信息
目录编号:
53163
目录名称:
STARLINK-4104
国际标识:
2022-083AH
轨道中心:
EARTH
卫星名称:
星链-4104
卫星全名:
星链-4104 (STARLINK-4104 )
卫星状态:
在轨 (已飞行1206 天)
发射日期:
2022-07-17 UTC
国别 :
美国 (US)
星等 :
--
轨道信息
数据来源 国际轨道数据 AOE轨道数据
星历时间 2025-11-04T20:16:17+0800
11小时前
查看轨道信息
2025-10-30T07:00:00+0800
6天前
查看轨道信息
半长轴 6917.849km 6917.893km
偏心率 0.0001462 0.0001996
轨道倾角 53.217° 53.209°
近地点辐角 89.447° 84.156°
升交点赤经 6.213° 31.141°
平近点角 270.669° 336.781°
近地点 538.702km 538.377km
远地点 540.726km 541.139km
周期 95.437分钟 95.438分钟
每日圈数 15.088505 15.088361
详细信息
固有亮度:
5
最大亮度:
2.5
卫星平台:
Starlink v1.5
覆盖范围:
全球
运营商:
太空探索技术公司
运营商所在国:
美国
制造商(研发单位):
太空探索技术公司
制造商所在国:
美国
使用方式:
暂无
卫星简介
星链(Starlink)计划是由太空探索技术公司(SpaceX)提出的一个巨型低轨卫星互联网星座项目,计划在2019年至2024年间在太空搭建由约1.2万颗卫星组成的“星链”网络,其中1584颗将部署在地球上空550千米处的近地轨道,并从2020年开始工作。该卫星仍在工作。
2D轨道图
3D轨道图
轨道高度分析图
轨道倾角分析图
轨道综合分析图
查看轨道综合分析图